Powrót do katalogu

QIANFAN-232

AktywnyŁącznośćPO
NORAD 69861·PAYLOAD·🇨🇳 China

Wystrzelony Jul 5, 2026 z Wenchang Space Launch Site

Loading…

Następne Przeloty (najbliższe 24 godziny)

TLE

ŚwieżeSource: Space-Track

Epoka: Sep 14, 2026, 12:14 UTC

1 69861U 26155P   26257.51023875 -.01867513  00000-0 -31448+1 0  9995
2 69861  89.0072  54.2918 0027541  22.5496 337.6858 13.49981495  9938

Śledź QIANFAN-232 w czasie rzeczywistym z AllMySat

Download on the App Store